Wausau, WI

3:59 AM CDT on June 25, 2017 (GMT -0500)
Wausau Downtown

Weather History for KAUW - January, 2013

Change the Weather History Date:

Monday, January 21, 2013

  Actual Average Record
Temperature  
Mean Temperature -5 °F 14 °F  
Max Temperature 0 °F 23 °F 46 °F (1908)
Min Temperature -11 °F 6 °F -27 °F (1963)
Degree Days  
Heating Degree Days 70 51  
Month to date heating degree days 994 1065  
Since 1 July heating degree days 3987 4351  
Cooling Degree Days 0 0  
Month to date cooling degree days 0 0  
Year to date cooling degree days 0 0  
Moisture  
Dew Point -16 °F    
Average Humidity 60    
Maximum Humidity 72    
Minimum Humidity 47    
Precipitation  
Precipitation 0.00 in 0.03 in 1.02 in (1917)
Month to date precipitation 0.34 0.71  
Year to date precipitation 0.34 0.71  
Snow  
Snow 0.00 in 0.50 in 10.20 in (1917)
Month to date snowfall 1.3 9.2  
Since 1 July snowfall 25.4 31.4  
Snow Depth 3.00 in    
Sea Level Pressure  
Sea Level Pressure 30.19 in    
Wind  
Wind Speed 13 mph (WNW)    
Max Wind Speed 21 mph    
Max Gust Speed 26 mph    
Visibility 10 miles    
Events      
T = Trace of Precipitation, MM = Missing Value Source: NWS Daily Summary

Daily Weather History Graph

Daily Weather History Graph

Search for Another Location

Airport or City:

Trip Planner

Search our weather history database for the weather conditions in past years. The results will help you decide how hot, cold, wet, or windy it might be!

Date:

Astronomy

Jan. 21, 2013 Rise Set
Actual Time 7:28 AM CST 4:51 PM CST
Civil Twilight 6:56 AM CST 5:23 PM CST
Nautical Twilight 6:20 AM CST 5:59 PM CST
Astronomical Twilight 5:45 AM CST 6:34 PM CST
Moon 12:30 PM CST (1/21) 2:57 AM CST (1/21)
Length of Visible Light 10h 27m
Length of Day
9h 22m
Waxing Gibbous, 75% of the Moon is Illuminated
Jan 21
Waxing Gibbous
Jan 26
Full
Feb 3
Last Quarter
Feb 10
New
Feb 17
First Quarter

Hourly Weather History & Observations

Time (CST) Temp. Windchill Dew Point Humidity Pressure Visibility Wind Dir Wind Speed Gust Speed Precip Events Conditions
12:54 AM -0.9 °F -14.1 °F -7.1 °F 75% 30.19 in 10.0 mi WNW 6.9 mph - N/A   Scattered Clouds
1:54 AM -0.9 °F -12.7 °F -7.1 °F 75% 30.17 in 10.0 mi West 5.8 mph - N/A   Overcast
2:54 AM -0.9 °F -15.3 °F -8.0 °F 72% 30.16 in 10.0 mi WNW 8.1 mph - N/A   Partly Cloudy
3:09 AM -0.4 °F -14.7 °F -7.6 °F 72% 30.06 in 10.0 mi WNW 8.1 mph - N/A   Mostly Cloudy
3:35 AM -0.4 °F -16.7 °F -7.6 °F 72% 30.05 in 10.0 mi WNW 10.4 mph - N/A   Overcast
3:54 AM -2.0 °F -19.6 °F -9.0 °F 72% 30.16 in 10.0 mi NW 11.5 mph - N/A   Overcast
4:25 AM -2.2 °F -18.9 °F -11.2 °F 66% 30.05 in 9.0 mi NW 10.4 mph - N/A   Overcast
4:37 AM -2.2 °F -18.0 °F -11.2 °F 66% 30.05 in 10.0 mi NW 9.2 mph - N/A   Scattered Clouds
4:54 AM -4.0 °F -24.5 °F -13.0 °F 65% 30.16 in 10.0 mi WNW 15.0 mph - N/A   Clear
5:54 AM -6.0 °F -27.0 °F -14.1 °F 68% 30.18 in 10.0 mi WNW 15.0 mph - N/A   Partly Cloudy
6:54 AM -8.0 °F -26.1 °F -17.0 °F 65% 30.19 in 10.0 mi WNW 10.4 mph 21.9 mph N/A   Partly Cloudy
7:54 AM -9.0 °F -28.4 °F -18.0 °F 65% 30.21 in 10.0 mi WNW 11.5 mph - N/A   Partly Cloudy
8:09 AM -9.4 °F -28.9 °F -18.4 °F 65% 30.09 in 8.0 mi WNW 11.5 mph - N/A   Mostly Cloudy
8:42 AM -9.4 °F -32.1 °F -18.4 °F 65% 30.10 in 10.0 mi WNW 16.1 mph 20.7 mph N/A   Scattered Clouds
8:54 AM -9.0 °F -31.7 °F -18.9 °F 62% 30.23 in 10.0 mi WNW 16.1 mph 24.2 mph N/A   Partly Cloudy
9:10 AM -9.4 °F -30.6 °F -18.4 °F 65% 30.11 in 10.0 mi WNW 13.8 mph - N/A   Mostly Cloudy
9:54 AM -9.0 °F -32.4 °F -18.9 °F 62% 30.25 in 8.0 mi WNW 17.3 mph 24.2 mph N/A   Overcast
10:54 AM -9.0 °F -31.7 °F -18.9 °F 62% 30.25 in 8.0 mi WNW 16.1 mph - N/A   Overcast
11:54 AM -7.1 °F -27.6 °F -18.0 °F 59% 30.23 in 8.0 mi WNW 13.8 mph - N/A   Overcast
12:54 PM -6.0 °F -28.4 °F -18.9 °F 54% 30.21 in 9.0 mi West 17.3 mph 25.3 mph N/A   Overcast
1:54 PM -6.0 °F -30.7 °F -20.0 °F 51% 30.21 in 10.0 mi West 21.9 mph 25.3 mph N/A   Overcast
2:47 PM -5.8 °F -28.2 °F -20.2 °F 50% 30.09 in 10.0 mi WNW 17.3 mph 24.2 mph N/A   Overcast
2:54 PM -6.0 °F -28.4 °F -20.0 °F 51% 30.22 in 10.0 mi WNW 17.3 mph 20.7 mph N/A   Mostly Cloudy
3:07 PM -5.8 °F -28.2 °F -20.2 °F 50% 30.09 in 10.0 mi WNW 17.3 mph 23.0 mph N/A   Scattered Clouds
3:54 PM -7.1 °F -27.6 °F -20.9 °F 51% 30.22 in 10.0 mi WNW 13.8 mph 24.2 mph N/A   Partly Cloudy
4:54 PM -8.0 °F -28.8 °F -20.0 °F 56% 30.23 in 10.0 mi WNW 13.8 mph 21.9 mph N/A   Clear
5:54 PM -9.0 °F -28.4 °F -20.0 °F 59% 30.26 in 10.0 mi WNW 11.5 mph - N/A   Clear
6:54 PM -9.0 °F -26.4 °F -20.0 °F 59% 30.27 in 10.0 mi WNW 9.2 mph - N/A   Clear
7:54 PM -9.0 °F -26.4 °F -20.0 °F 59% 30.28 in 10.0 mi WNW 9.2 mph - N/A   Clear
8:54 PM -9.9 °F -29.6 °F -20.0 °F 61% 30.30 in 10.0 mi WNW 11.5 mph - N/A   Clear
9:54 PM -9.9 °F -29.6 °F -18.9 °F 65% 30.30 in 10.0 mi WNW 11.5 mph - N/A   Clear
10:54 PM -11.0 °F -29.9 °F -18.9 °F 68% 30.31 in 10.0 mi West 10.4 mph - N/A   Clear
11:54 PM -11.0 °F -27.6 °F -18.9 °F 68% 30.30 in 10.0 mi West 8.1 mph - N/A   Clear